Weather History for Hallock, MN

Change the Weather History Date:

Saturday, June 15, 2013

  Actual Average Record
Temperature  
Mean Temperature 65 °F -  
Max Temperature 80 °F 72 °F 95 °F (1987)
Min Temperature 50 °F 50 °F 36 °F (1939)
Growing Degree Days 15 (Base 50)    
Moisture  
Dew Point 50 °F    
Average Humidity 58    
Maximum Humidity 94    
Minimum Humidity 23    
Precipitation  
Precipitation 0.00 in - - ()
Sea Level Pressure  
Sea Level Pressure 29.79 in    
Wind  
Wind Speed 11 mph (WSW)    
Max Wind Speed 31 mph    
Max Gust Speed 40 mph    
Visibility 10 miles    
Events Rain    
Averages and records for this station are not official NWS values.
T = Trace of Precipitation, MM = Missing Value Source: NWS Daily Summary

Daily Weather History Graph

Daily Weather History Graph

Search for Another Location

Airport:

Trip Planner

Search our weather history database for the weather conditions in past years. The results will help you decide how hot, cold, wet, or windy it might be!

Date:

Astronomy

Jun. 15, 2013 Rise Set
Actual Time 5:24 AM CDT 9:32 PM CDT
Civil Twilight 4:41 AM CDT 10:15 PM CDT
Nautical Twilight 3:41 AM CDT 11:15 PM CDT
Astronomical Twilight 2:00 AM CDT 12:56 AM CDT
Moon 12:31 PM CDT (6/15) 12:40 AM CDT (6/15)
Length of Visible Light 17h 33m
Length of Day
16h 08m
Waxing Crescent, 40% of the Moon is Illuminated
Jun 15
Waxing Crescent
Jun 16
First Quarter
Jun 23
Full
Jun 29
Last Quarter
Jul 8
New

Hourly Weather History & Observations

Time (CDT) Temp. Dew Point Humidity Pressure Visibility Wind Dir Wind Speed Gust Speed Precip Events Conditions
12:13 AM 66.2 °F 62.6 °F 88% 29.77 in 10.0 mi South 11.5 mph - N/A   Clear
12:33 AM 66.2 °F 62.6 °F 88% 29.79 in 10.0 mi SW 11.5 mph 16.1 mph N/A   Mostly Cloudy
12:53 AM 66.2 °F 62.6 °F 88% 29.80 in 10.0 mi West 9.2 mph - N/A   Scattered Clouds
1:13 AM 66.2 °F 60.8 °F 83% 29.80 in 10.0 mi WNW 5.8 mph - N/A   Clear
1:33 AM 64.4 °F 57.2 °F 77% 29.80 in 10.0 mi WNW 5.8 mph - N/A   Clear
1:53 AM 62.6 °F 57.2 °F 82% 29.80 in 10.0 mi WNW 6.9 mph - N/A   Clear
2:13 AM 62.6 °F 57.2 °F 82% 29.80 in 10.0 mi West 6.9 mph - N/A   Clear
2:33 AM 62.6 °F 55.4 °F 77% 29.80 in 10.0 mi West 6.9 mph - N/A   Clear
2:53 AM 60.8 °F 53.6 °F 77% 29.80 in 10.0 mi WNW 6.9 mph - N/A   Clear
3:13 AM 59.0 °F 53.6 °F 82% 29.81 in 10.0 mi West 5.8 mph - N/A   Clear
3:33 AM 57.2 °F 51.8 °F 82% 29.82 in 10.0 mi West 6.9 mph - N/A   Clear
3:53 AM 55.4 °F 51.8 °F 88% 29.82 in 10.0 mi WSW 4.6 mph - N/A   Clear
4:13 AM 55.4 °F 51.8 °F 88% 29.83 in 10.0 mi SW 4.6 mph - N/A   Clear
4:33 AM 53.6 °F 50.0 °F 88% 29.83 in 10.0 mi Calm Calm - N/A   Clear
4:53 AM 53.6 °F 50.0 °F 88% 29.83 in 10.0 mi South 3.5 mph - N/A   Clear
5:13 AM 50.0 °F 48.2 °F 94% 29.83 in 10.0 mi South 4.6 mph - N/A   Clear
5:33 AM 50.0 °F 48.2 °F 94% 29.84 in 10.0 mi South 4.6 mph - N/A   Clear
5:53 AM 50.0 °F 48.2 °F 94% 29.83 in 10.0 mi South 4.6 mph - N/A   Clear
6:13 AM 51.8 °F 50.0 °F 94% 29.84 in 10.0 mi Calm Calm - N/A   Clear
6:33 AM 51.8 °F 50.0 °F 94% 29.84 in 10.0 mi SSE 5.8 mph - N/A   Clear
6:53 AM 53.6 °F 51.8 °F 94% 29.84 in 10.0 mi South 4.6 mph - N/A   Clear
7:13 AM 55.4 °F 53.6 °F 94% 29.84 in 10.0 mi South 4.6 mph - N/A   Clear
7:33 AM 57.2 °F 53.6 °F 88% 29.85 in 10.0 mi South 8.1 mph - N/A   Clear
7:53 AM 60.8 °F 55.4 °F 82% 29.85 in 10.0 mi SSW 9.2 mph - N/A   Clear
8:13 AM 62.6 °F 55.4 °F 77% 29.85 in 10.0 mi SW 9.2 mph - N/A   Clear
8:34 AM 66.2 °F 53.6 °F 64% 29.84 in 10.0 mi SW 10.4 mph - N/A   Clear
8:53 AM 66.2 °F 53.6 °F 64% 29.84 in 10.0 mi SW 6.9 mph - N/A   Clear
9:13 AM 69.8 °F 51.8 °F 53% 29.84 in 10.0 mi WSW 10.4 mph - N/A   Clear
9:34 AM 71.6 °F 53.6 °F 53% 29.83 in 10.0 mi WSW 8.1 mph - N/A   Clear
9:53 AM 71.6 °F 51.8 °F 50% 29.82 in 10.0 mi SW 8.1 mph 17.3 mph N/A   Clear
10:13 AM 73.4 °F 51.8 °F 47% 29.82 in 10.0 mi WSW 6.9 mph 16.1 mph N/A   Clear
10:33 AM 73.4 °F 48.2 °F 41% 29.82 in 10.0 mi WSW 12.7 mph - N/A   Clear
10:53 AM 75.2 °F 50.0 °F 41% 29.81 in 10.0 mi WSW 13.8 mph 17.3 mph N/A   Clear
11:13 AM 75.2 °F 48.2 °F 38% 29.81 in 10.0 mi WSW 12.7 mph 16.1 mph N/A   Clear
11:33 AM 78.8 °F 46.4 °F 32% 29.80 in 10.0 mi SW 18.4 mph 25.3 mph N/A   Scattered Clouds
11:53 AM 78.8 °F 44.6 °F 30% 29.80 in 10.0 mi WSW 17.3 mph 28.8 mph N/A   Scattered Clouds
12:13 PM 78.8 °F 42.8 °F 28% 29.79 in 10.0 mi West 13.8 mph 24.2 mph N/A   Scattered Clouds
12:33 PM 78.8 °F 42.8 °F 28% 29.79 in 10.0 mi West 24.2 mph 27.6 mph N/A   Scattered Clouds
12:53 PM 78.8 °F 42.8 °F 28% 29.79 in 10.0 mi West 23.0 mph 29.9 mph N/A   Scattered Clouds
1:13 PM 78.8 °F 41.0 °F 26% 29.78 in 10.0 mi West 28.8 mph 34.5 mph N/A   Mostly Cloudy
1:33 PM 77.0 °F 39.2 °F 26% 29.78 in 10.0 mi WSW 21.9 mph 27.6 mph N/A   Mostly Cloudy
1:53 PM 80.6 °F 39.2 °F 23% 29.77 in 10.0 mi WSW 23.0 mph 32.2 mph N/A   Scattered Clouds
2:14 PM 80.6 °F 41.0 °F 24% 29.77 in 10.0 mi WSW 24.2 mph 32.2 mph N/A   Mostly Cloudy
2:33 PM 78.8 °F 42.8 °F 28% 29.76 in 10.0 mi SW 23.0 mph 28.8 mph N/A   Mostly Cloudy
2:53 PM 80.6 °F 41.0 °F 24% 29.76 in 10.0 mi WSW 25.3 mph 32.2 mph N/A   Scattered Clouds
3:14 PM 80.6 °F 42.8 °F 26% 29.76 in 10.0 mi West 27.6 mph 33.4 mph N/A   Scattered Clouds
3:33 PM 80.6 °F 42.8 °F 26% 29.76 in 10.0 mi WSW 25.3 mph 34.5 mph N/A   Scattered Clouds
3:53 PM 80.6 °F 42.8 °F 26% 29.75 in 10.0 mi WSW 28.8 mph 36.8 mph N/A   Scattered Clouds
4:13 PM 80.6 °F 42.8 °F 26% 29.75 in 10.0 mi West 28.8 mph 36.8 mph N/A   Clear
4:33 PM 80.6 °F 44.6 °F 28% 29.75 in 10.0 mi West 31.1 mph 40.3 mph N/A   Clear
4:53 PM 78.8 °F 44.6 °F 30% 29.75 in 10.0 mi West 24.2 mph 34.5 mph N/A   Scattered Clouds
5:13 PM 78.8 °F 44.6 °F 30% 29.75 in 10.0 mi West 23.0 mph 33.4 mph N/A   Clear
5:33 PM 77.0 °F 44.6 °F 32% 29.75 in 10.0 mi WSW 21.9 mph 27.6 mph N/A   Scattered Clouds
5:53 PM 77.0 °F 44.6 °F 32% 29.74 in 10.0 mi WSW 24.2 mph 29.9 mph N/A   Mostly Cloudy
6:13 PM 77.0 °F 44.6 °F 32% 29.74 in 10.0 mi West 21.9 mph 26.5 mph N/A   Scattered Clouds
6:33 PM 77.0 °F 44.6 °F 32% 29.74 in 10.0 mi West 21.9 mph 32.2 mph N/A   Scattered Clouds
6:53 PM 77.0 °F 44.6 °F 32% 29.74 in 10.0 mi West 19.6 mph 29.9 mph N/A   Scattered Clouds
7:13 PM 75.2 °F 44.6 °F 34% 29.74 in 10.0 mi West 20.7 mph 27.6 mph N/A   Scattered Clouds
7:33 PM 75.2 °F 44.6 °F 34% 29.75 in 10.0 mi West 15.0 mph - N/A   Scattered Clouds
7:53 PM 71.6 °F 50.0 °F 46% 29.76 in 10.0 mi NW 18.4 mph 25.3 mph N/A   Mostly Cloudy
8:13 PM 69.8 °F 50.0 °F 49% 29.76 in 10.0 mi NW 8.1 mph - N/A   Mostly Cloudy
8:33 PM 66.2 °F 53.6 °F 64% 29.76 in 10.0 mi NW 8.1 mph - N/A Rain Light Rain
8:54 PM 68.0 °F 53.6 °F 60% 29.77 in 10.0 mi NW 10.4 mph 16.1 mph N/A   Scattered Clouds
9:13 PM 66.2 °F 53.6 °F 64% 29.76 in 10.0 mi NW 6.9 mph - N/A   Scattered Clouds
9:33 PM 64.4 °F 53.6 °F 68% 29.77 in 10.0 mi NW 5.8 mph - N/A   Scattered Clouds
9:54 PM 64.4 °F 53.6 °F 68% 29.77 in 10.0 mi WNW 4.6 mph - N/A   Scattered Clouds
10:13 PM 62.6 °F 53.6 °F 72% 29.78 in 10.0 mi Calm Calm - N/A   Clear
10:33 PM 60.8 °F 53.6 °F 77% 29.78 in 10.0 mi Calm Calm - N/A   Clear
10:54 PM 57.2 °F 51.8 °F 82% 29.79 in 10.0 mi South 3.5 mph - N/A   Clear
11:13 PM 57.2 °F 50.0 °F 77% 29.79 in 10.0 mi South 4.6 mph - N/A   Clear
11:33 PM 55.4 °F 48.2 °F 77% 29.78 in 10.0 mi South 5.8 mph - N/A   Clear
11:53 PM 55.4 °F 48.2 °F 77% 29.79 in 10.0 mi South 3.5 mph - N/A   Clear